Home > Weather > Tampa > Past weeks

Flag for USA Weather for the Past 2 Weeks in Tampa, Florida, USA

Now
90 °F

Sunny.


Feels Like: 96 °F
Forecast: 75 / 88 °F
Wind: 13 mph from Southwest

Location: Tampa, Peter O Knight Airport

Current Time: May 3, 2016 at 12:35:40 PM

Latest Report: May 3, 2016 at 12:15 PM


Visibility: 10 mi

Pressure: 29.97 "Hg

Humidity: 55%

Dew Point: 72 °F

Location of TampaLocation

Historic Weather in Tampa — Graph

°F

Tampa Temperature Yesterday

Maximum temperature yesterday: 91 °F (at 1:35 PM)
Minimum temperature yesterday: 73 °F (at 6:15 AM)
Average temperature yesterday: 83 °F

High & Low Weather Summary for the Past Weeks

 TemperatureHumidityPressure
High95 °F (Apr 29, 3:55 PM)100% (Apr 24, 6:15 AM)30.23 "Hg (Apr 24, 6:15 AM)
Low63 °F (Apr 19, 3:15 AM)29% (Apr 24, 1:55 PM)29.88 "Hg (Apr 27, 3:55 AM)
Average79 °F66%30.01 "Hg
* Reported Apr 18 11:15 AM — May 3 11:15 AM, Tampa, Weather by CustomWeather, © 2016

Note: Actual official high and low records may vary slightly from our data, if they occured in-between our weather recording intervals... More about our weather records

Advertising

Tampa Weather History for the Previous 24 Hours

Scroll right to see more
 ConditionsComfort  
Time TempWeatherWind HumidityBarometerVisibility
11:15 AM
Tue, May 3
88 °FSunny.14 mph62%29.98 "Hg10 mi
10:55 AM86 °FSunny.10 mph75%29.98 "Hg10 mi
10:35 AM86 °FScattered clouds.9 mph75%29.98 "Hg10 mi
10:15 AM84 °FScattered clouds.10 mph79%29.98 "Hg10 mi
9:55 AM82 °FScattered clouds.8 mph84%29.98 "Hg10 mi
9:15 AM81 °FMostly cloudy.7 mph89%29.98 "Hg10 mi
8:55 AM81 °FLow clouds.6 mph89%29.98 "Hg10 mi
8:15 AM79 °FLow clouds.5 mph89%29.97 "Hg10 mi
7:35 AM79 °FPassing clouds.7 mph94%29.96 "Hg7 mi
7:15 AM79 °FPassing clouds.7 mph94%29.96 "Hg10 mi
6:55 AM77 °FPassing clouds.6 mph94%29.95 "Hg10 mi
6:35 AM77 °FPassing clouds.7 mph100%29.95 "Hg10 mi
6:15 AM79 °FPassing clouds.8 mph89%29.95 "Hg10 mi
5:55 AM79 °FPassing clouds.8 mph94%29.96 "Hg10 mi
5:15 AM79 °FPassing clouds.9 mph94%29.95 "Hg10 mi
4:55 AM79 °FPassing clouds.8 mph89%29.96 "Hg10 mi
4:15 AM79 °FPartly cloudy.7 mph89%29.95 "Hg10 mi
3:55 AM79 °FPartly cloudy.8 mph94%29.95 "Hg10 mi
3:15 AM79 °FPassing clouds.7 mph84%29.95 "Hg10 mi
2:55 AM79 °FPassing clouds.3 mph84%29.94 "Hg10 mi
2:35 AM79 °FPassing clouds.No wind84%29.95 "Hg10 mi
2:15 AM79 °FClear.No wind84%29.96 "Hg10 mi
1:35 AM79 °FPassing clouds.No wind84%29.98 "Hg10 mi
12:55 AM81 °FPartly cloudy.No wind79%30.01 "Hg10 mi
12:35 AM81 °FPassing clouds.3 mph79%30.01 "Hg10 mi
12:15 AM81 °FClear.3 mph79%30.01 "Hg10 mi
11:55 PM
Mon, May 2
81 °FClear.No wind79%30.01 "Hg10 mi
11:15 PM81 °FPassing clouds.3 mph79%30.01 "Hg10 mi
10:35 PM81 °FPassing clouds.3 mph79%30.01 "Hg10 mi
10:15 PM81 °FClear.5 mph79%30.00 "Hg10 mi
9:15 PM81 °FClear.5 mph74%29.98 "Hg10 mi
8:35 PM82 °FScattered clouds.6 mph70%29.97 "Hg10 mi
8:15 PM82 °FScattered clouds.No wind70%29.97 "Hg10 mi
7:55 PM84 °FSunny.7 mph66%29.96 "Hg10 mi
7:15 PM86 °FSunny.7 mph59%29.95 "Hg10 mi
6:55 PM86 °FSunny.9 mph59%29.95 "Hg10 mi
5:55 PM86 °FScattered clouds.7 mph62%29.95 "Hg10 mi
4:55 PM90 °FSunny.12 mph55%29.96 "Hg10 mi
3:55 PM90 °FSunny.13 mph52%29.97 "Hg10 mi
3:35 PM91 °FSunny.9 mph52%29.98 "Hg10 mi
3:15 PM91 °FSunny.7 mph52%29.98 "Hg10 mi
2:55 PM91 °FSunny.9 mph52%29.99 "Hg10 mi
2:35 PM90 °FSunny.13 mph55%30.00 "Hg10 mi
2:15 PM91 °FSunny.13 mph56%30.01 "Hg10 mi
1:55 PM91 °FSunny.14 mph52%30.01 "Hg10 mi
1:35 PM91 °FSunny.7 mph49%30.01 "Hg10 mi
1:15 PM90 °FSunny.6 mph55%30.02 "Hg10 mi
12:55 PM90 °FSunny.9 mph55%30.03 "Hg10 mi
12:35 PM88 °FSunny.9 mph59%30.03 "Hg10 mi
12:15 PM90 °FSunny.8 mph59%30.04 "Hg10 mi
Weather by CustomWeather, © 2016

See weather overviewHow to use our weather pages